Quincy, IL

7:43 PM CST on November 17, 2019 (GMT -0600)
Quincy Regional-Baldwin

Weather History for KUIN - September, 2019

Change the Weather History Date:

Saturday, September 14, 2019

  Actual Average Record
Temperature  
Mean Temperature 69 °F 67 °F  
Max Temperature 82 °F 78 °F 99 °F (1939)
Min Temperature 55 °F 56 °F 38 °F (1996)
Degree Days  
Heating Degree Days 0 2  
Month to date heating degree days 0 16  
Since 1 July heating degree days 2 21  
Cooling Degree Days 4 4  
Month to date cooling degree days 110 80  
Year to date cooling degree days 1167 1033  
Growing Degree Days 19 (Base 50)    
Moisture  
Dew Point 56 °F    
Average Humidity 65    
Maximum Humidity 93    
Minimum Humidity 38    
Precipitation  
Precipitation 0.00 in 0.11 in 2.33 in (1909)
Month to date precipitation 0.68 1.54  
Year to date precipitation 31.71 27.29  
Sea Level Pressure  
Sea Level Pressure 30.16 in    
Wind  
Wind Speed 7 mph ()    
Max Wind Speed 15 mph    
Max Gust Speed 22 mph    
Visibility 10.0 miles    
Events      
T = Trace of Precipitation, MM = Missing Value Source: Averaged Metar Reports

Daily Weather History Graph

Daily Weather History Graph

Search for Another Location

Airport or City:

Astronomy

Sep. 14, 2019 Rise Set
Actual Time 6:44 AM CDT 7:15 PM CDT
Civil Twilight 6:17 AM CDT 7:42 PM CDT
Nautical Twilight 5:45 AM CDT 8:14 PM CDT
Astronomical Twilight 5:12 AM CDT 8:47 PM CDT
Moon 7:56 PM CDT (9/14) 6:58 AM CDT (9/14)
Length of Visible Light 13h 25m
Length of Day
12h 30m
Full, 100% of the Moon is Illuminated
Sep 14
Full
Sep 21
Last Quarter
Sep 28
New
Oct 5
First Quarter
Oct 13
Full

Hourly Weather History & Observations

Time (CDT) Temp. Heat Index Dew Point Humidity Pressure Visibility Wind Dir Wind Speed Gust Speed Precip Events Conditions
12:54 AM 59.0 °F - 55.0 °F 87% 30.20 in 10.0 mi South 6.9 mph - N/A   Clear
1:54 AM 57.9 °F - 54.0 °F 87% 30.21 in 10.0 mi South 6.9 mph - N/A   Clear
2:54 AM 57.0 °F - 54.0 °F 89% 30.20 in 10.0 mi South 4.6 mph - N/A   Clear
3:54 AM 57.0 °F - 55.0 °F 93% 30.20 in 10.0 mi SSW 6.9 mph - N/A   Clear
4:54 AM 57.0 °F - 54.0 °F 89% 30.20 in 10.0 mi South 5.8 mph - N/A   Clear
5:54 AM 60.1 °F - 55.9 °F 86% 30.20 in 10.0 mi South 4.6 mph - N/A   Clear
6:54 AM 55.9 °F - 54.0 °F 93% 30.22 in 10.0 mi South 4.6 mph - N/A   Clear
7:54 AM 63.0 °F - 57.9 °F 84% 30.22 in 10.0 mi South 4.6 mph - N/A   Clear
8:54 AM 68.0 °F - 60.1 °F 76% 30.22 in 10.0 mi South 5.8 mph - N/A   Scattered Clouds
9:54 AM 73.0 °F - 59.0 °F 61% 30.22 in 10.0 mi South 6.9 mph - N/A   Partly Cloudy
10:54 AM 77.0 °F - 55.0 °F 47% 30.22 in 10.0 mi South 11.5 mph - N/A   Scattered Clouds
11:54 AM 78.1 °F - 52.0 °F 40% 30.21 in 10.0 mi South 12.7 mph - N/A   Clear
12:54 PM 80.1 °F 80.0 °F 54.0 °F 40% 30.20 in 10.0 mi SSE 11.5 mph - N/A   Clear
1:54 PM 81.0 °F 80.4 °F 53.1 °F 38% 30.18 in 10.0 mi South 11.5 mph - N/A   Clear
2:54 PM 82.0 °F 81.4 °F 55.0 °F 39% 30.14 in 10.0 mi SSE 13.8 mph - N/A   Clear
3:54 PM 82.9 °F 82.0 °F 55.0 °F 38% 30.13 in 10.0 mi SSE 10.4 mph 16.1 mph N/A   Partly Cloudy
4:54 PM 82.9 °F 82.1 °F 55.9 °F 39% 30.11 in 10.0 mi South 10.4 mph - N/A   Clear
5:54 PM 81.0 °F 81.0 °F 57.0 °F 44% 30.08 in 10.0 mi SSE 9.2 mph - N/A   Clear
6:54 PM 77.0 °F - 61.0 °F 58% 30.07 in 10.0 mi SSE 8.1 mph - N/A   Clear
7:54 PM 73.9 °F - 59.0 °F 59% 30.08 in 10.0 mi SSE 6.9 mph - N/A   Clear
8:54 PM 69.1 °F - 61.0 °F 75% 30.09 in 10.0 mi SSE 5.8 mph - N/A   Clear
9:54 PM 73.0 °F - 59.0 °F 61% 30.09 in 10.0 mi SSE 11.5 mph - N/A   Clear
11:54 PM 72.0 °F - 59.0 °F 64% 30.09 in 10.0 mi South 6.9 mph - N/A   Clear